Tracking 27086 objects as of 23-Mar-2023
HD Live streaming from Space Station
objects crossing your sky now

SL-16 DEB

Track SL-16 DEB now!
10-day predictions


NORAD ID: 39847
Int'l Code: 1992-093KZ
Perigee: 735.4 km
Apogee: 822.8 km
Inclination: 71.0 °
Period: 100.3 minutes
Semi major axis: 7150 km
RCS: 0.0061 m2 (small)
Launch date: December 25, 1992
Source: Commonwealth of Independent States (former USSR) (CIS)
Launch site: TYURATAM MISSILE AND SPACE COMPLEX (TTMTR)

Note: This is SATELLITE DEBRIS
Your satellite tracking list
Your tracking list is empty




NASA's NSSDC Master Catalog

Two Line Element Set (TLE):
1 39847U 92093KZ  23077.34827393  .00002470  00000-0  84928-3 0  9999
2 39847  71.0307 109.6249 0061141 131.5076 229.1328 14.35934885460803
Source of the keplerian elements: AFSPC